Time,TemperatureF,DewpointF,PressureIn,WindDirection,WindDirectionDegrees,WindSpeedMPH,WindSpeedGustMPH,Humidity,HourlyPrecipIn,Conditions,Clouds,dailyrainin,SolarRadiationWatts/m^2,SoftwareType,DateUTC
2013-05-04 00:30:00,40.1,38.8,30.37,SE,132,0.0,0.0,95,0.00,CLR,,0.00,0.0,WeatherDisplay:10.37,2013-05-04 04:30:00,
2013-05-04 01:00:00,39.5,38.2,30.36,SE,132,0.0,0.0,95,0.00,CLR,,0.00,0.0,WeatherDisplay:10.37,2013-05-04 05:00:00,
2013-05-04 01:30:00,38.8,37.5,30.36,SE,132,0.0,0.0,95,0.00,CLR,,0.00,0.0,WeatherDisplay:10.37,2013-05-04 05:30:00,
2013-05-04 02:00:00,38.5,37.2,30.35,SE,132,0.0,0.0,95,0.00,CLR,,0.00,0.0,WeatherDisplay:10.37,2013-05-04 06:00:00,
2013-05-04 02:30:00,37.9,36.9,30.35,SE,132,0.0,0.0,96,0.00,CLR,,0.00,0.0,WeatherDisplay:10.37,2013-05-04 06:30:00,
2013-05-04 03:00:00,37.3,36.3,30.35,SE,132,0.0,0.0,96,0.00,CLR,,0.00,0.0,WeatherDisplay:10.37,2013-05-04 07:00:00,
2013-05-04 03:30:00,36.8,35.8,30.34,SE,132,0.0,0.0,96,0.00,CLR,,0.00,0.0,WeatherDisplay:10.37,2013-05-04 07:30:00,
2013-05-04 04:00:00,36.5,35.5,30.34,SE,132,0.0,0.0,96,0.00,CLR,,0.00,0.0,WeatherDisplay:10.37,2013-05-04 08:00:00,
2013-05-04 04:30:00,35.9,34.9,30.33,SE,132,0.0,0.0,96,0.00,CLR,,0.00,0.0,WeatherDisplay:10.37,2013-05-04 08:30:00,
2013-05-04 05:00:00,35.6,34.6,30.34,SE,132,0.0,0.0,96,0.00,CLR,,0.00,0.0,WeatherDisplay:10.37,2013-05-04 09:00:00,
2013-05-04 05:30:00,35.1,34.1,30.34,SE,132,0.0,0.0,96,0.00,OVC,,0.00,0.0,WeatherDisplay:10.37,2013-05-04 09:30:00,
2013-05-04 06:00:00,34.8,34.0,30.35,SE,132,0.0,0.0,97,0.00,BKN,,0.00,18.0,WeatherDisplay:10.37,2013-05-04 10:00:00,
2013-05-04 06:30:00,35.3,34.5,30.35,SE,132,0.0,0.0,97,0.00,SCT,,0.00,86.0,WeatherDisplay:10.37,2013-05-04 10:30:00,
2013-05-04 07:00:00,38.7,38.1,30.36,SE,132,0.0,0.0,98,0.00,CLR,,0.00,186.0,WeatherDisplay:10.37,2013-05-04 11:00:00,
2013-05-04 07:30:00,44.6,44.4,30.36,SE,132,0.0,1.0,99,0.00,CLR,,0.00,264.0,WeatherDisplay:10.37,2013-05-04 11:30:00,
2013-05-04 08:00:00,50.5,47.7,30.36,East,94,0.0,5.0,90,0.00,CLR,,0.00,371.0,WeatherDisplay:10.37,2013-05-04 12:00:00,
2013-05-04 09:00:00,55.8,47.3,30.36,East,99,1.0,10.0,73,0.00,CLR,,0.00,554.0,WeatherDisplay:10.37,2013-05-04 13:00:00,
2013-05-04 09:30:00,56.9,46.4,30.36,ENE,61,3.0,13.0,68,0.00,CLR,,0.00,636.0,WeatherDisplay:10.37,2013-05-04 13:30:00,
2013-05-04 10:00:00,57.1,46.2,30.37,NNE,17,5.0,13.0,67,0.00,CLR,,0.00,721.0,WeatherDisplay:10.37,2013-05-04 14:00:00,
2013-05-04 10:30:00,57.3,45.6,30.36,NE,46,5.0,13.0,65,0.00,CLR,,0.00,800.0,WeatherDisplay:10.37,2013-05-04 14:30:00,
2013-05-04 11:00:00,56.7,44.6,30.36,NE,34,6.0,13.0,64,0.00,CLR,,0.00,837.0,WeatherDisplay:10.37,2013-05-04 15:00:00,
2013-05-04 11:29:00,56.5,44.1,30.36,NNE,24,7.0,13.0,63,0.00,FEW,,0.00,872.0,WeatherDisplay:10.37,2013-05-04 15:29:00,
2013-05-04 12:00:00,57.9,44.1,30.36,ESE,106,6.0,15.0,60,0.00,FEW,,0.00,904.0,WeatherDisplay:10.37,2013-05-04 16:00:00,
2013-05-04 12:29:00,57.7,43.5,30.35,NE,36,5.0,14.0,59,0.00,FEW,,0.00,914.0,WeatherDisplay:10.37,2013-05-04 16:29:00,
2013-05-04 13:00:00,58.6,42.0,30.35,NNE,23,5.0,12.0,54,0.00,CLR,,0.00,921.0,WeatherDisplay:10.37,2013-05-04 17:00:00,
2013-05-04 13:30:00,59.7,41.0,30.35,NNE,17,5.0,14.0,50,0.01,RA,,0.01,911.0,WeatherDisplay:10.37,2013-05-04 17:30:00,
2013-05-04 14:00:00,59.8,45.0,30.35,East,84,2.0,14.0,58,0.00,CLR,,0.01,877.0,WeatherDisplay:10.37,2013-05-04 18:00:00,
2013-05-04 14:29:00,59.9,45.5,30.35,ESE,105,6.0,20.0,59,0.00,CLR,,0.01,853.0,WeatherDisplay:10.37,2013-05-04 18:29:00,
2013-05-04 15:00:00,58.6,42.0,30.34,ESE,118,5.0,12.0,54,0.00,CLR,,0.01,795.0,WeatherDisplay:10.37,2013-05-04 19:00:00,
2013-05-04 15:29:00,58.3,35.9,30.33,North,11,6.0,13.0,43,0.00,CLR,,0.01,747.0,WeatherDisplay:10.37,2013-05-04 19:29:00,
2013-05-04 16:00:00,56.8,32.1,30.32,NNE,17,5.0,12.0,39,0.00,CLR,,0.01,673.0,WeatherDisplay:10.37,2013-05-04 20:00:00,
2013-05-04 16:29:00,57.0,35.8,30.32,ESE,110,2.0,12.0,45,0.00,CLR,,0.01,585.0,WeatherDisplay:10.37,2013-05-04 20:29:00,
2013-05-04 17:00:00,56.0,40.1,30.31,SE,133,6.0,13.0,55,0.00,BKN,,0.01,200.0,WeatherDisplay:10.37,2013-05-04 21:00:00,
2013-05-04 17:30:00,54.0,42.5,30.32,SE,141,2.0,13.0,65,0.00,BKN,,0.01,114.0,WeatherDisplay:10.37,2013-05-04 21:30:00,
2013-05-04 18:00:00,52.3,39.2,30.32,ESE,123,2.0,13.0,61,0.00,BKN,,0.01,39.0,WeatherDisplay:10.37,2013-05-04 22:00:00,
2013-05-04 18:29:00,49.9,39.8,30.32,ESE,112,1.0,14.0,68,0.00,BKN,,0.01,54.0,WeatherDisplay:10.37,2013-05-04 22:29:00,
2013-05-04 19:00:00,47.9,40.0,30.32,ESE,118,2.0,9.0,74,0.00,BKN,,0.01,26.0,WeatherDisplay:10.37,2013-05-04 23:00:00,
2013-05-04 19:29:00,46.6,39.8,30.33,ESE,121,5.0,8.0,77,0.00,BKN,,0.01,12.0,WeatherDisplay:10.37,2013-05-04 23:29:00,
2013-05-04 20:00:00,45.0,38.9,30.33,SE,141,2.0,7.0,79,0.00,CLR,,0.01,0.0,WeatherDisplay:10.37,2013-05-05 00:00:00,
2013-05-04 20:29:00,43.8,39.0,30.33,SE,141,1.0,3.0,83,0.00,CLR,,0.01,0.0,WeatherDisplay:10.37,2013-05-05 00:29:00,
2013-05-04 21:00:00,42.8,38.3,30.34,SE,141,0.0,2.0,84,0.00,CLR,,0.01,0.0,WeatherDisplay:10.37,2013-05-05 01:00:00,
2013-05-04 21:29:00,41.4,38.4,30.35,SE,141,0.0,0.0,89,0.00,CLR,,0.01,0.0,WeatherDisplay:10.37,2013-05-05 01:29:00,
2013-05-04 22:00:00,39.8,37.4,30.35,SE,141,0.0,0.0,91,0.00,CLR,,0.01,0.0,WeatherDisplay:10.37,2013-05-05 02:00:00,
2013-05-04 22:29:00,38.7,36.6,30.34,SE,141,0.0,0.0,92,0.00,CLR,,0.01,0.0,WeatherDisplay:10.37,2013-05-05 02:29:00,
2013-05-04 23:00:00,37.8,36.2,30.34,SE,141,0.0,0.0,94,0.00,CLR,,0.01,0.0,WeatherDisplay:10.37,2013-05-05 03:00:00,
2013-05-04 23:29:00,36.9,35.4,30.34,SE,141,0.0,0.0,94,0.00,CLR,,0.01,0.0,WeatherDisplay:10.37,2013-05-05 03:29:00,